Terminal Aerodrome Forecast
Issued by NWS Charleston, WV

Home | Current Version | Previous Version | Text Only | Print | Product List | Glossary On
Versions: 1 2 3 4 5 6 7 8 9 10 11 12 13 14 15 16 17 18 19 20 21 22 23 24 25 26 27 28 29 30 31 32 33 34 35 36 37
000
FTUS41 KRLX 291605 AAC
TAFHTS
TAF AMD
KHTS 291605Z 2916/3012 21004KT P6SM BKN025
     FM291900 20004KT P6SM VCTS BKN035CB
     FM292100 20006KT P6SM BKN050
     FM300000 00000KT P6SM BKN050
     FM300500 00000KT 3SM BR BKN035
     FM300600 00000KT 1SM BR BKN001=

USA.gov is the U.S. government's official web portal to all federal, state and local government web resources and services.